* Astronomy

Members Login
Username 
 
Password 
    Remember Me  
Post Info TOPIC: Asteroid 2012 VE26


L

Posts: 131433
Date:
Asteroid 2012 VE26
Permalink  
 


The 6 - 12 metre wide asteroid 2012 VE26 will make a close pass (53.7 lunar distances, 0.1379 AU) travelling at 14.90 km/second, to the Earth-Moon system on the 17th November 2014 @ 02:57 UT ±2 days 15:39. 

See more

The Lunar Distance (LD), the distance between Earth and the Moon, equals 384,401 km, (or 0.00256 AU).



__________________


L

Posts: 131433
Date:
Permalink  
 

Orbital elements:
2012 VE26                                                Earth MOID = 0.0012 AU
Epoch 2012 Sept. 30.0 TT = JDT 2456200.5                MPC
M 316.28744              (2000.0)            P               Q
n   0.49349021     Peri.   94.77189     -0.75736168     -0.65152090
a   1.5859288      Node    44.58036     +0.57161105     -0.69394592
e   0.6331404      Incl.    3.58265     +0.31569620     -0.30652825
P   2.00           H   28.4           G   0.15           U   7

MPEC 2012 - V55

The 5 - 12 metre wide asteroid 2012 VE26 made a close pass (1.6 lunar distances, 0.0042 AU), travelling at 18.92 km/second, to the Earth-Moon system on the 8th November, 2012 @ 01:04 UT ±00:01. 

See more

The Lunar Distance (LD), the distance between Earth and the Moon, equals 384,401 km, (or 0.00256 AU).



__________________
Page 1 of 1  sorted by
 
Quick Reply

Please log in to post quick replies.



Create your own FREE Forum
Report Abuse
Powered by ActiveBoard